FW0683 Weather Reports


time (UTC)temp
C
wind
direction
speed
KPH
gust
KPH
rain 1hr
cm
rain 24hr
cm
rain mn
cm
humidity
%
barometer
mb
20260503191519 12 278 0.0 4.8 0.00 0.25 0.05 45 1009.2
20260503190017 12 263 0.0 3.2 0.00 0.25 0.05 47 1009.3
20260503184520 11 39 0.0 12.9 0.00 0.25 0.05 48 1009.2
20260503183011 11 326 0.0 19.3 0.00 0.25 0.05 50 1009.4
20260503181510 10 238 0.0 9.7 0.00 0.25 0.05 55 1009.4
20260503180010 10 311 1.6 14.5 0.00 0.25 0.05 54 1009.3
20260503174508 10 10 0.0 4.8 0.00 0.25 0.05 52 1009.3
20260503173007 10 221 0.0 12.9 0.00 0.25 0.05 57 1009.3
20260503171502 9 259 0.0 4.8 0.00 0.25 0.05 64 1009.3
20260503081525 5 324 0.0 0.0 0.00 0.51 0.03 95 1011.8
20260503071523 5 324 0.0 0.0 0.00 0.51 0.03 95 1012.4
20260503054603 6 66 0.0 0.0 0.00 0.51 0.03 95 1013.2
20260503053057 6 66 0.0 0.0 0.03 0.51 0.03 95 1013.2
20260503051555 6 65 0.0 0.0 0.03 0.51 0.03 95 1013.5
20260503050054 6 66 0.0 0.0 0.03 0.51 0.03 95 1013.8
20260503044555 6 65 0.0 0.0 0.03 0.51 0.03 95 1014.1
20260503043054 6 65 0.0 0.0 0.00 0.48 0.00 95 1014.2
20260503041551 6 75 0.0 0.0 0.00 0.48 0.00 94 1014.4
20260503040047 6 75 0.0 0.0 0.00 0.48 0.00 94 1014.6
20260503034548 6 75 0.0 0.0 0.00 0.48 0.48 94 1014.5
20260503033046 6 75 0.0 0.0 0.00 0.48 0.48 94 1014.3
20260503031556 6 75 0.0 0.0 0.00 0.48 0.48 94 1014.3
20260503030048 6 113 0.0 0.0 0.00 0.48 0.48 94 1014.3
20260503024547 6 113 0.0 0.0 0.00 0.48 0.48 94 1014.4
20260503023044 6 113 0.0 0.0 0.00 0.48 0.48 94 1014.5
20260503021548 6 113 0.0 0.0 0.00 0.48 0.48 94 1014.6
20260503020055 7 113 0.0 0.0 0.00 0.48 0.48 93 1014.8
20260503014549 7 113 0.0 0.0 0.00 0.48 0.48 94 1014.8
20260503013044 7 113 0.0 0.0 0.00 0.48 0.48 93 1015.0
20260503011548 7 113 0.0 0.0 0.00 0.48 0.48 93 1014.9
20260503010042 7 113 0.0 0.0 0.00 0.48 0.48 93 1015.1
20260503004541 7 113 0.0 0.0 0.00 0.48 0.48 93 1014.9
20260503003041 7 113 0.0 0.0 0.00 0.48 0.48 93 1014.9
20260503001541 7 113 0.0 0.0 0.00 0.48 0.48 92 1014.8
20260503000057 8 113 0.0 0.0 0.00 0.48 0.48 92 1014.7
20260502234540 8 113 0.0 0.0 0.03 0.48 0.48 92 1014.6
20260502233039 8 113 0.0 0.0 0.05 0.48 0.48 91 1014.5
20260502231549 8 116 0.0 0.0 0.15 0.48 0.48 91 1014.3
20260502230038 8 116 0.0 0.0 0.20 0.48 0.48 91 1014.3
20260502224538 8 116 0.0 0.0 0.18 0.46 0.46 90 1014.5
20260502223038 8 116 0.0 0.0 0.15 0.43 0.43 88 1014.6
20260502221538 9 116 0.0 0.0 0.05 0.33 0.33 86 1014.6
20260502220046 9 116 0.0 0.0 0.00 0.28 0.28 83 1014.2
20260502214536 10 100 0.0 0.0 0.00 0.28 0.28 82 1014.3
20260502213035 10 348 0.0 0.0 0.00 0.28 0.28 82 1014.2
20260502211535 10 17 0.0 0.0 0.00 0.28 0.28 81 1014.4
20260502210035 10 79 0.0 0.0 0.00 0.28 0.28 81 1014.3
20260502204534 10 283 0.0 0.0 0.00 0.28 0.28 81 1014.3
20260502203033 10 319 0.0 0.0 0.00 0.28 0.28 81 1014.2
20260502201535 10 356 0.0 0.0 0.00 0.28 0.28 79 1014.2
20260502200033 11 310 0.0 0.0 0.00 0.28 0.28 76 1014.3
20260502194532 11 323 0.0 0.0 0.00 0.28 0.28 73 1014.3
20260502193032 11 230 0.0 1.6 0.00 0.28 0.28 71 1014.3